sat.trackr.live / text

‹ back to catalog

STARLINK-11399 [DTC]

NORAD 63063 · 2025-035M

PAYLOAD ACTIVE UNKNOWN

§ Identity

Operator
Country
US
Launch date
2025-02-21
Launch site
AFETR
Launch vehicle
Mass (kg)
RCS (m²)

Purposes: comms

External: N2YO · Heavens-Above · Gunter

§ Orbital elements

Epoch: 2026-05-25T01:12:17.522784Z

Period
91.66 min
Inclination
42.9995°
Eccentricity
0.0005322
Mean motion
15.70971276 rev/d
Perigee alt
352.5 km
Apogee alt
359.7 km
Semi-major
6,734.3 km
B*
1.2402e-3
RAAN
274.7716°
Arg perigee
265.3781°
Mean anomaly
94.6479°
Rev number
7,323

§ Raw data

STARLINK-11399 [DTC]1 63063U 25035M   26145.05020281  .00162833  00000+0  12402-2 0  99922 63063  42.9995 274.7716 0005322 265.3781  94.6479 15.70971276 73235

JSON: /api/v1/satellites/63063 · /tle

For live sub-satellite position, see the globe view (requires WebGL).

§ Visibility from observer

Set your observer location to see the next 7 days of passes ≥ 10°. The values pass through the URL so the page stays shareable.

No JS? Fill the form by hand. The geolocation button needs JavaScript.